Location: Keewatin
(47.4004°N, 93.0827°W)
Time: 06:15:53
(UTC+00:00)

Envisat - Pass Details

Date: 08 December 2019
Orbit: 764 x 766 km, 98.1° (Epoch: 20 January)

Event Time Altitude Azimuth Distance (km) Brightness Sun altitude
Rises 12:33:31 0° 19° (NNE) 3,245 6.2 -11.8°
Reaches altitude 10° 12:35:57 10° 26° (NNE) 2,314 5.6 -11.4°
Maximum altitude 12:40:48 43° 98° (E) 1,074 4.4 -10.6°
Drops below altitude 10° 12:45:36 10° 169° (S) 2,296 6.0 -9.9°
Sets 12:48:00 0° 176° (S) 3,217 6.6 -9.5°
